CW3699 Weather Reports


time (UTC)temp
C
wind
direction
speed
KPH
gust
KPH
rain 1hr
cm
rain 24hr
cm
rain mn
cm
humidity
%
barometer
mb
20260510225405 8 320 3.2 8.0 0.00 0.00 0.00 65 1019.9
20260510224906 8 327 3.2 8.0 0.00 0.00 0.00 64 1019.8
20260510223905 8 347 3.2 4.8 0.00 0.00 0.00 64 1019.7
20260510223406 8 344 3.2 8.0 0.00 0.00 0.00 66 1019.7
20260510222906 8 336 4.8 4.8 0.00 0.00 0.00 66 1019.7
20260510222409 8 342 3.2 4.8 0.00 0.00 0.00 65 1019.7
20260510221906 8 346 3.2 8.0 0.00 0.00 0.00 65 1019.6
20260510221405 8 353 4.8 8.0 0.00 0.00 0.00 65 1019.6
20260510220905 8 359 4.8 8.0 0.00 0.00 0.00 66 1019.5
20260510220406 8 357 3.2 8.0 0.00 0.00 0.00 66 1019.5
20260510215905 8 348 3.2 4.8 0.00 0.00 0.00 65 1019.5
20260510215406 8 353 3.2 8.0 0.00 0.00 0.00 65 1019.5
20260510214905 8 351 3.2 4.8 0.00 0.00 0.00 65 1019.4
20260510214406 8 351 3.2 8.0 0.00 0.00 0.00 64 1019.4
20260510213905 8 6 3.2 11.3 0.00 0.00 0.00 66 1019.4
20260510212905 8 346 3.2 8.0 0.00 0.00 0.00 66 1019.3
20260510211905 8 348 3.2 4.8 0.00 0.00 0.00 65 1019.1
20260510210906 8 345 3.2 8.0 0.00 0.00 0.00 65 1019.0
20260510210405 9 352 3.2 8.0 0.00 0.00 0.00 65 1019.0
20260510205905 9 6 4.8 9.7 0.00 0.00 0.00 64 1018.9
20260510205405 9 350 3.2 8.0 0.00 0.00 0.00 63 1018.8
20260510204908 9 342 3.2 8.0 0.00 0.00 0.00 65 1018.8
20260510204405 9 336 3.2 8.0 0.00 0.00 0.00 64 1018.8
20260510203905 9 335 3.2 8.0 0.00 0.00 0.00 63 1018.8
20260510203407 9 325 3.2 8.0 0.00 0.00 0.00 63 1018.7
20260510202905 8 338 3.2 8.0 0.00 0.00 0.00 63 1018.7
20260510202405 8 344 4.8 8.0 0.00 0.00 0.00 63 1018.6
20260510200406 8 328 3.2 8.0 0.00 0.00 0.00 63 1018.5
20260510195905 8 343 4.8 8.0 0.00 0.00 0.00 63 1018.6
20260510195405 8 339 4.8 8.0 0.00 0.00 0.00 63 1018.4
20260510194907 8 346 3.2 8.0 0.00 0.00 0.00 62 1018.4
20260510194405 8 356 4.8 8.0 0.00 0.00 0.00 63 1018.4
20260510193905 9 344 4.8 9.7 0.00 0.00 0.00 64 1018.4
20260510193408 9 338 4.8 8.0 0.00 0.00 0.00 64 1018.3
20260510192905 9 352 4.8 9.7 0.00 0.00 0.00 62 1018.2
20260510192405 10 340 4.8 9.7 0.00 0.00 0.00 61 1018.1
20260510191906 10 336 4.8 9.7 0.00 0.00 0.00 61 1018.0
20260510191405 10 343 4.8 11.3 0.00 0.00 0.00 62 1017.9
20260510190905 10 347 4.8 9.7 0.00 0.00 0.00 61 1017.8
20260510190407 10 351 3.2 8.0 0.00 0.00 0.00 62 1017.8
20260510185905 11 332 3.2 12.9 0.00 0.00 0.00 60 1017.7
20260510185406 11 301 4.8 8.0 0.00 0.00 0.00 60 1017.7
20260510184907 11 343 4.8 8.0 0.00 0.00 0.00 59 1017.6
20260510184406 11 0 4.8 9.7 0.00 0.00 0.00 59 1017.5
20260510183905 11 307 3.2 14.5 0.00 0.00 0.00 60 1017.5
20260510183408 11 341 3.2 9.7 0.00 0.00 0.00 61 1017.3
20260510182905 11 343 3.2 8.0 0.00 0.00 0.00 61 1017.3
20260510181906 10 351 4.8 8.0 0.00 0.00 0.00 62 1017.1
20260510180905 10 341 4.8 9.7 0.00 0.00 0.00 64 1017.0
20260510180406 10 334 4.8 8.0 0.00 0.00 0.00 63 1017.0
20260510174405 10 349 4.8 8.0 0.00 0.00 0.00 66 1017.0
20260510173905 10 353 4.8 9.7 0.00 0.00 0.00 64 1017.0
20260510172905 10 352 4.8 9.7 0.00 0.00 0.00 64 1016.9
20260510172405 10 343 4.8 9.7 0.00 0.00 0.00 63 1016.9
20260510171907 10 353 4.8 11.3 0.00 0.00 0.00 62 1016.9
20260510171405 10 357 4.8 11.3 0.00 0.00 0.00 63 1016.9
20260510170905 10 339 4.8 11.3 0.00 0.00 0.00 64 1016.9
20260510170406 10 336 4.8 9.7 0.00 0.00 0.00 64 1016.8
20260510165904 10 335 4.8 8.0 0.00 0.00 0.00 63 1016.8
20260510165406 10 3 4.8 8.0 0.00 0.00 0.00 63 1016.8
20260510164905 10 358 4.8 9.7 0.00 0.00 0.00 64 1016.7
20260510164405 10 345 4.8 9.7 0.00 0.00 0.00 64 1016.7
20260510163905 10 347 4.8 8.0 0.00 0.00 0.00 64 1016.6
20260510163405 10 0 4.8 8.0 0.00 0.00 0.00 65 1016.6
20260510162905 10 355 4.8 9.7 0.00 0.00 0.00 64 1016.6
20260510162404 10 350 4.8 9.7 0.00 0.00 0.00 66 1016.6
20260510161905 10 15 4.8 9.7 0.00 0.00 0.00 66 1016.6
20260510161405 10 5 4.8 11.3 0.00 0.00 0.00 66 1016.5
20260510160405 10 355 4.8 8.0 0.00 0.00 0.00 66 1016.5
20260510155905 10 357 4.8 8.0 0.00 0.00 0.00 64 1016.5
20260510154908 10 343 4.8 8.0 0.00 0.00 0.00 65 1016.3
20260510154405 10 17 4.8 9.7 0.00 0.00 0.00 65 1016.3
20260510153905 10 10 4.8 9.7 0.00 0.00 0.00 65 1016.2
20260510153405 10 7 4.8 9.7 0.00 0.00 0.00 64 1016.2
20260510152904 10 24 4.8 8.0 0.00 0.00 0.00 66 1016.2
20260510152405 10 7 4.8 9.7 0.00 0.00 0.00 66 1016.1
20260510151907 9 358 4.8 9.7 0.00 0.00 0.00 65 1016.1
20260510151405 9 12 4.8 9.7 0.00 0.00 0.00 65 1016.0
20260510150905 9 22 4.8 9.7 0.00 0.00 0.00 65 1016.1
20260510145904 8 7 4.8 9.7 0.00 0.00 0.00 67 1016.0
20260510145405 8 10 4.8 9.7 0.00 0.00 0.00 67 1016.0
20260510144904 8 4 4.8 8.0 0.00 0.00 0.00 66 1015.9
20260510143905 8 12 4.8 11.3 0.00 0.00 0.00 66 1016.0
20260510143404 8 15 4.8 11.3 0.00 0.00 0.00 68 1015.9
20260510142404 8 9 4.8 8.0 0.00 0.00 0.00 69 1015.8
20260510141905 8 12 4.8 8.0 0.00 0.00 0.00 69 1015.9
20260510141405 8 9 3.2 8.0 0.00 0.00 0.00 70 1015.9
20260510140906 7 14 3.2 8.0 0.00 0.00 0.00 69 1015.9
20260510140405 7 8 3.2 8.0 0.00 0.00 0.00 70 1015.8
20260510135905 7 358 4.8 8.0 0.00 0.00 0.00 71 1015.8
20260510134905 7 6 3.2 9.7 0.00 0.00 0.00 72 1015.9
20260510134405 7 4 4.8 8.0 0.00 0.00 0.00 72 1015.8
20260510133905 7 354 4.8 8.0 0.00 0.00 0.00 72 1015.8
20260510133404 7 15 4.8 9.7 0.00 0.00 0.00 73 1015.7
20260510132905 6 0 3.2 9.7 0.00 0.00 0.00 73 1015.7
20260510132404 6 342 3.2 9.7 0.00 0.00 0.00 74 1015.8
20260510131949 6 355 3.2 8.0 0.00 0.00 0.00 75 1015.7
20260510130906 6 355 3.2 4.8 0.00 0.00 0.00 74 1015.6
20260510125407 6 299 3.2 4.8 0.00 0.00 0.00 75 1015.5
20260510124906 6 333 3.2 8.0 0.00 0.00 0.00 76 1015.4
20260510124407 6 286 4.8 12.9 0.00 0.00 0.00 77 1015.5
20260510123404 5 288 3.2 11.3 0.00 0.00 0.00 78 1015.4
20260510122906 5 283 3.2 11.3 0.00 0.00 0.00 78 1015.2
20260510122407 5 339 3.2 9.7 0.00 0.00 0.00 78 1015.3
20260510121905 5 295 3.2 9.7 0.00 0.00 0.00 79 1015.2
20260510121406 5 316 3.2 9.7 0.00 0.00 0.00 79 1015.2
20260510120906 5 6 3.2 4.8 0.00 0.00 0.00 80 1015.1
20260510120406 5 327 4.8 11.3 0.00 0.00 0.00 79 1015.0
20260510115904 5 257 3.2 11.3 0.00 0.00 0.00 78 1015.0
20260510115406 5 331 3.2 9.7 0.00 0.00 0.00 80 1015.0
20260510114905 5 265 3.2 9.7 0.00 0.00 0.00 79 1014.9
20260510114405 5 284 3.2 14.5 0.00 0.00 0.00 80 1014.9
20260510113904 4 289 3.2 19.3 0.00 0.00 0.00 79 1014.7
20260510113406 4 356 3.2 19.3 0.00 0.00 0.00 78 1014.7
20260510112906 4 275 4.8 12.9 0.00 0.00 0.00 78 1014.6
20260510112404 4 281 4.8 16.1 0.00 0.00 0.00 79 1014.4
20260510111906 4 282 3.2 11.3 0.00 0.00 0.00 79 1014.4
20260510111404 4 268 4.8 11.3 0.00 0.00 0.00 81 1014.2
20260510110905 3 212 3.2 14.5 0.00 0.00 0.00 81 1014.1
20260510110404 3 270 3.2 11.3 0.00 0.00 0.00 82 1014.0
20260510105904 3 234 3.2 14.5 0.00 0.00 0.00 83 1013.8
20260510105406 3 241 4.8 14.5 0.00 0.00 0.00 84 1013.7
20260510104906 3 265 3.2 11.3 0.00 0.00 0.00 84 1013.7
20260510104407 3 269 3.2 8.0 0.00 0.00 0.00 84 1013.6
20260510103904 3 294 3.2 8.0 0.00 0.00 0.00 85 1013.6
20260510102406 3 255 3.2 12.9 0.00 0.00 0.00 86 1013.2
20260510101904 3 283 4.8 16.1 0.00 0.00 0.00 86 1013.2
20260510100406 3 268 3.2 14.5 0.00 0.00 0.00 86 1013.0
20260510095904 3 315 3.2 11.3 0.00 0.00 0.00 84 1013.0
20260510095406 4 38 1.6 4.8 0.00 0.00 0.00 84 1012.8
20260510094406 4 322 3.2 9.7 0.00 0.00 0.00 84 1012.7
20260510093905 4 283 3.2 4.8 0.00 0.00 0.00 85 1012.8
20260510093406 4 346 1.6 4.8 0.00 0.00 0.00 85 1012.7
20260510092904 4 329 3.2 8.0 0.00 0.00 0.00 85 1012.7
20260510092407 4 305 4.8 16.1 0.00 0.00 0.00 85 1012.6
20260510091904 4 311 4.8 16.1 0.00 0.00 0.00 85 1012.5
20260510091404 4 231 4.8 14.5 0.00 0.00 0.00 86 1012.5
20260510090904 4 337 1.6 11.3 0.00 0.00 0.00 86 1012.5
20260510090407 4 196 1.6 4.8 0.00 0.00 0.00 86 1012.4
20260510085906 4 337 3.2 4.8 0.00 0.00 0.00 86 1012.3
20260510085404 4 346 1.6 4.8 0.00 0.00 0.00 86 1012.3
20260510084906 4 325 3.2 9.7 0.00 0.00 0.00 86 1012.3
20260510084406 4 328 3.2 4.8 0.00 0.00 0.00 85 1012.2
20260510083906 4 275 1.6 4.8 0.00 0.00 0.00 85 1012.1
20260510083408 4 336 3.2 9.7 0.00 0.00 0.00 85 1012.1
20260510082906 4 333 3.2 4.8 0.00 0.00 0.00 85 1012.0
20260510082406 4 315 3.2 9.7 0.00 0.00 0.00 85 1012.0
20260510081904 3 316 3.2 9.7 0.00 0.00 0.00 84 1011.9
20260510080906 3 259 3.2 8.0 0.00 0.00 0.00 81 1011.8
20260510080408 3 296 3.2 8.0 0.00 0.00 0.00 81 1011.8
20260510075904 3 255 4.8 11.3 0.00 0.00 0.00 80 1011.7
20260510075404 4 253 4.8 11.3 0.00 0.00 0.00 79 1011.5
20260510074905 4 235 3.2 9.7 0.00 0.00 0.00 79 1011.5
20260510074406 4 234 4.8 14.5 0.00 0.00 0.00 80 1011.4
20260510072906 4 252 3.2 12.9 0.00 0.00 0.00 82 1011.2
20260510072406 4 249 3.2 19.3 0.00 0.00 0.00 82 1011.0
20260510071906 4 233 4.8 12.9 0.00 0.00 0.00 83 1011.0
20260510071406 4 266 3.2 14.5 0.00 0.00 0.00 83 1011.0
20260510070406 4 257 3.2 16.1 0.00 0.00 0.00 83 1010.8
20260510065904 3 270 3.2 14.5 0.00 0.00 0.00 84 1010.9
20260510065406 3 232 3.2 12.9 0.00 0.00 0.00 85 1010.9
20260510064906 3 293 3.2 14.5 0.00 0.00 0.00 85 1010.8
20260510064406 3 270 3.2 19.3 0.00 0.00 0.00 85 1010.9
20260510063906 3 258 4.8 16.1 0.00 0.00 0.00 85 1010.8
20260510063408 3 241 3.2 9.7 0.00 0.00 0.00 86 1010.8
20260510062906 3 268 3.2 9.7 0.00 0.00 0.00 86 1010.8
20260510062406 3 356 1.6 8.0 0.00 0.00 0.00 86 1010.7
20260510061906 4 323 1.6 4.8 0.00 0.00 0.00 85 1010.8
20260510061406 4 312 1.6 4.8 0.00 0.00 0.00 85 1010.7
20260510060906 4 322 1.6 4.8 0.00 0.00 0.00 85 1010.7
20260510060407 4 338 1.6 4.8 0.00 0.00 0.00 85 1010.7
20260510055906 4 299 1.6 4.8 0.00 0.00 0.00 85 1010.7
20260510055406 4 356 1.6 4.8 0.00 0.00 0.00 86 1010.7
20260510054906 4 317 3.2 9.7 0.00 0.00 0.00 85 1010.7
20260510054404 5 31 1.6 4.8 0.00 0.00 0.00 85 1010.7
20260510053906 5 316 1.6 9.7 0.00 0.00 0.00 84 1010.7
20260510053406 5 313 1.6 4.8 0.00 0.00 0.00 84 1010.6
20260510052906 5 332 3.2 4.8 0.00 0.00 0.00 84 1010.6
20260510052404 5 327 1.6 9.7 0.00 0.00 0.00 84 1010.6
20260510051404 5 307 3.2 4.8 0.00 0.00 0.00 84 1010.5
20260510050904 5 339 3.2 4.8 0.00 0.00 0.00 84 1010.5
20260510045914 5 301 1.6 9.7 0.00 0.00 0.00 83 1010.4
20260510044413 5 330 3.2 4.8 0.00 0.00 0.00 79 1010.2
20260510043915 5 337 3.2 8.0 0.00 0.00 0.00 80 1010.3
20260510043414 5 339 1.6 4.8 0.00 0.00 0.00 80 1010.2
20260510042915 5 343 1.6 4.8 0.00 0.00 0.00 81 1010.2
20260510042415 5 314 1.6 8.0 0.00 0.00 0.00 80 1010.1
20260510041914 5 326 1.6 8.0 0.00 0.00 0.00 80 1010.0
20260510041415 5 333 1.6 8.0 0.00 0.00 0.00 79 1010.0
20260510040914 5 335 1.6 4.8 0.00 0.00 0.00 76 1010.0
20260510040413 5 337 3.2 4.8 0.00 0.00 0.00 74 1010.0
20260510035414 5 337 3.2 9.7 0.00 0.00 0.00 75 1009.9
20260510034914 5 336 3.2 8.0 0.00 0.00 0.00 74 1009.9
20260510034413 5 338 3.2 9.7 0.00 0.00 0.00 77 1009.9
20260510033914 5 1 1.6 14.5 0.00 0.00 0.00 76 1009.7
20260510033412 5 341 1.6 8.0 0.00 0.00 0.00 76 1009.7
20260510032915 5 345 3.2 8.0 0.00 0.00 0.00 74 1009.7
20260510032414 5 331 3.2 12.9 0.00 0.00 0.00 74 1009.7
20260510031912 5 332 4.8 8.0 0.00 0.00 0.00 73 1009.6
20260510031415 6 332 4.8 9.7 0.00 0.00 0.00 73 1009.6
20260510030913 6 319 3.2 12.9 0.00 0.00 0.00 73 1009.7
20260510025915 6 331 3.2 12.9 0.00 0.00 0.00 73 1009.5
20260510025415 6 328 3.2 9.7 0.00 0.00 0.00 73 1009.5
20260510024415 6 321 3.2 8.0 0.00 0.00 0.00 72 1009.3
20260510023915 6 325 4.8 12.9 0.00 0.00 0.00 71 1009.3
20260510023415 6 330 3.2 8.0 0.00 0.00 0.00 72 1009.2
20260510022915 6 326 4.8 12.9 0.00 0.00 0.00 72 1009.1
20260510022414 6 339 3.2 8.0 0.00 0.00 0.00 74 1009.0
20260510021916 6 323 3.2 8.0 0.00 0.00 0.00 72 1008.9
20260510021413 6 332 3.2 9.7 0.00 0.00 0.00 72 1008.9
20260510020912 6 324 3.2 4.8 0.00 0.00 0.00 74 1008.7
20260510020412 6 345 3.2 8.0 0.00 0.00 0.00 72 1008.5
20260510015414 6 346 3.2 8.0 0.00 0.00 0.00 75 1008.4
20260510014913 6 320 3.2 4.8 0.00 0.00 0.00 73 1008.4
20260510014412 7 338 3.2 4.8 0.00 0.00 0.00 73 1008.3
20260510013913 7 335 3.2 4.8 0.00 0.00 0.00 73 1008.1
20260510013414 7 336 4.8 12.9 0.00 0.00 0.00 72 1008.0
20260510012914 7 333 3.2 8.0 0.00 0.00 0.00 72 1007.9
20260510012413 7 332 3.2 8.0 0.00 0.00 0.00 71 1007.8
20260510011912 7 331 3.2 11.3 0.00 0.00 0.00 70 1007.6
20260510011414 7 335 4.8 8.0 0.00 0.00 0.00 69 1007.5
20260510010913 7 324 3.2 8.0 0.00 0.00 0.00 68 1007.4
20260510005914 7 349 4.8 14.5 0.00 0.00 0.00 69 1007.2
20260510005413 7 344 3.2 8.0 0.00 0.00 0.00 71 1007.2
20260510004914 7 330 3.2 8.0 0.00 0.00 0.00 69 1007.2
20260510004414 7 343 4.8 9.7 0.00 0.00 0.00 68 1007.2
20260510003915 7 350 4.8 8.0 0.00 0.00 0.00 69 1007.1
20260510003414 7 341 4.8 12.9 0.00 0.00 0.00 68 1006.9
20260510002914 8 350 4.8 19.3 0.00 0.00 0.00 69 1006.9
20260510002414 8 345 4.8 9.7 0.00 0.00 0.00 68 1006.7
20260510001913 8 349 6.4 14.5 0.00 0.00 0.00 69 1006.6
20260510001415 8 346 8.0 16.1 0.00 0.00 0.00 70 1006.6
20260510000914 8 347 6.4 14.5 0.00 0.00 0.00 70 1006.4
20260510000414 8 347 8.0 16.1 0.00 0.00 0.00 69 1006.4
20260509235915 8 345 6.4 11.3 0.00 0.00 0.00 69 1006.2
20260509235414 8 351 6.4 12.9 0.00 0.00 0.00 70 1006.1
20260509234914 8 0 8.0 12.9 0.00 0.00 0.00 69 1006.0
20260509234414 8 351 8.0 14.5 0.00 0.00 0.00 67 1005.8
20260509233414 9 352 9.7 19.3 0.00 0.00 0.00 66 1005.5
20260509232914 9 346 8.0 14.5 0.00 0.00 0.00 67 1005.4
20260509232413 9 340 8.0 14.5 0.00 0.00 0.00 67 1005.3
20260509231912 9 340 8.0 9.7 0.00 0.00 0.00 66 1005.2
20260509231412 9 334 8.0 11.3 0.00 0.00 0.00 68 1005.1
20260509230926 9 350 8.0 11.3 0.00 0.00 0.00 68 1004.9
20260509230414 9 346 8.0 20.9 0.00 0.00 0.00 67 1004.8